Location: Carri�res
(48.9069°N, 2.1792°E)
Time: 13:44:10
(UTC+00:00)

Landsat 5 - Pass Details

Date: 17 January 2021
Orbit: 528 x 654 km, 98.2° (Epoch: 25 February)

Event Time Altitude Azimuth Distance (km) Brightness Sun altitude
Rises 17:03:40 0° 15° (NNE) 2,795 6.5 -6.4°
Reaches altitude 10° 17:05:52 10° 17° (NNE) 1,872 5.7 -6.7°
Maximum altitude 17:09:54 78° 102° (ESE) 569 3.3 -7.3°
Drops below altitude 10° 17:13:47 10° 191° (S) 1,797 6.4 -7.9°
Sets 17:15:51 0° 192° (SSW) 2,672 7.4 -8.2°
